Location: ????????
(37.6846°N, 24.0673°E)
Time: 15:02:30
(UTC+00:00)

CBERS-1 - Pass Details

Date: 14 July 2020
Orbit: 770 x 776 km, 98.6° (Epoch: 04 August)

Event Time Altitude Azimuth Distance (km) Brightness Sun altitude
Rises 00:53:51 0° 9° (N) 3,263 8.3 -21.7°
Reaches altitude 10° 00:56:11 10° 6° (N) 2,331 7.3 -21.4°
Maximum altitude 01:01:14 61° 287° (WNW) 876 4.1 -20.8°
Enters shadow 01:02:41 43° 229° (SW) 1,071 4.3 -20.6°
